Zurück zum Katalog

SOLRAD 7A

AktivWissenschaftLEO
NORAD 730·PAYLOAD·🇺🇸 United States

Gestartet Jan 11, 1964 von Vandenberg Space Force Base

Loading…

Nächste Überflüge (nächste 24 Stunden)

TLE

AktuellSource: Space-Track

Epoche: Sep 14, 2026, 05:23 UTC

1 00730U 64001D   26257.22471132 -.00000029  00000-0  18106-4 0  9997
2 00730  69.9043  85.6764 0016550 277.6412 189.9704 13.96066176 73064

Verfolge SOLRAD 7A in Echtzeit mit AllMySat

Download on the App Store